This demonstration page uses our WeatherBlox Daily Observations layout. Learn more.

Left ArrowRight Arrow

Hourly Observations for July 27, 2021

Temp ( °F °C ) Dew Point ( °F °C ) Humidity (%) Winds ( mph kmh ) Pressure ( in mb ) Visibility ( mi km ) Precip ( " mm )
12:56 am 00:56 Clear 71 21.7 68 20 90 90 S 6 9 29.98 1015 10 16 0.00 0.00
1:56 am 01:56 Clear 69 20.6 68 20 96 96 S 6 9 29.98 1015 10 16 0.00 0.00
2:56 am 02:56 Clear 69 20.6 67 19.4 93 93 S 5 7 29.98 1015 10 16 0.00 0.00
3:56 am 03:56 Clear 68 20 67 19.4 96 96 S 5 7 29.98 1015 10 16 0.00 0.00
4:56 am 04:56 Clear 68 20 66 18.9 93 93 S 7 11 29.98 1015 10 16 0.00 0.00
5:56 am 05:56 Clear 69 20.6 67 19.4 93 93 SSW 7 11 29.99 1016 10 16 0.00 0.00
6:56 am 06:56 Sunny 68 20 66 18.9 93 93 S 5 7 30.00 1016 10 16 0.00 0.00
7:56 am 07:56 Sunny 71 21.7 67 19.4 87 87 SSW 6 9 30.01 1016 10 16 0.00 0.00
8:56 am 08:56 Sunny 74 23.3 69 20.6 85 85 SW 7 11 30.02 1017 10 16 0.00 0.00
9:56 am 09:56 Sunny 79 26.1 71 21.7 77 77 SW 8 13 30.02 1017 10 16 0.00 0.00
10:35 am 10:35 Hazy 81 27 72 22 74 74 SSW 7 11 29.95 1014 3 4 0.00 0.00
10:44 am 10:44 Hazy 81 27 72 22 74 74 SW 8 13 29.95 1014 2 3 0.00 0.00
10:51 am 10:51 Hazy 82 28 72 22 70 70 SW 7 11 29.95 1014 2 3 0.00 0.00
10:56 am 10:56 Mostly Sunny 82 27.8 71 21.7 69 69 SW 7 11 30.01 1016 10 16 0.00 0.00
11:56 am 11:56 Sunny 85 29.4 75 23.9 72 72 S 7 11 30.02 1017 10 16 0.00 0.00
12:56 pm 12:56 Sunny 88 31.1 76 24.4 68 68 S 10 17 30.01 1016 10 16 0.00 0.00
1:56 pm 13:56 Sunny 89 31.7 74 23.3 61 61 SSW 13 20 30.01 1016 10 16 0.00 0.00
2:56 pm 14:56 Sunny 90 32.2 75 23.9 62 62 S 13 20 30.00 1016 10 16 0.00 0.00
3:56 pm 15:56 Sunny 90 32.2 74 23.3 59 59 S 10 17 30.00 1016 10 16 0.00 0.00
4:56 pm 16:56 Sunny 91 32.8 72 22.2 54 54 S 9 15 29.99 1016 10 16 0.00 0.00
5:56 pm 17:56 Sunny 90 32.2 75 23.9 62 62 S 8 13 29.98 1015 10 16 0.00 0.00
6:56 pm 18:56 Sunny 89 31.7 75 23.9 63 63 SSE 7 11 29.98 1015 10 16 0.00 0.00
7:56 pm 19:56 Sunny 86 30 77 25 75 75 SE 6 9 29.97 1015 10 16 0.00 0.00
8:56 pm 20:56 Sunny 81 27.2 75 23.9 82 82 ESE 8 13 29.98 1015 10 16 0.00 0.00
9:56 pm 21:56 Clear 78 25.6 74 23.3 87 87 SE 6 9 29.99 1016 10 16 0.00 0.00
10:56 pm 22:56 Clear 77 25 73 22.8 88 88 SE 6 9 30.01 1016 10 16 0.00 0.00
11:56 pm 23:56 Clear 77 25 72 22.2 85 85 SSE 9 15 30.01 1016 10 16 0.00 0.00

Powered by AerisWeather